No particular awareness of the weather is required.    There are no Weather-warnings


Meteo18 Weather Cam more information Meteo18 Weather Cam


Thunder radar more information blitzortung!


Rain radar more information rain snow radar


Visit our other weather sites:

Template documentation
and downloads

And another site



Weather Underground History page Text

Daily Summary for April 23, 2017 Units:  English    Metric   Both
« Previous Day
Next Day »
Daily Weekly Monthly Yearly Custom
  High: Low: Average:
Temperature: TemperatureC °F 5.3 °F 9.8 °F
Dew Point: DewpointC °F 0.0 °F 2.4 °F
Humidity: Humidity % 39 % 62 %
Wind Speed: WindSpeedKMH mph 0.0 mph 10.1 mph
Wind Gust: WindSpeedGustKMH mph - -
Wind:- - ENE
Pressure: PressurehPa in 1022.2 in -
Precipitation: 0.0 in    
Historical Graphs
 
 
Tabular Data for April 23, 2017
Time Temperature Dew Point Pressure Wind Wind Speed Wind Gust Humidity Rainfall Rate (Hourly)
TemperatureC °F DewpointC °F PressurehPa in Calm     Humidity % HourlyPrecipMM in
00:02 9.3 °F 6.0 °F 1025.6 in North 3.2 mph 16.1 mph 80 % 0.0 in
00:12 8.9 °F 5.8 °F 1025.6 in NNE 1.6 mph 12.9 mph 81 % 0.0 in
00:17 8.8 °F 5.9 °F 1025.6 in North 1.6 mph 6.4 mph 82 % 0.0 in
00:22 8.6 °F 5.7 °F 1025.6 in North 4.8 mph 8.0 mph 82 % 0.0 in
00:27 8.5 °F 5.8 °F 1025.6 in Calm   8.0 mph 83 % 0.0 in
00:32 8.3 °F 5.6 °F 1025.6 in NNW 3.2 mph 6.4 mph 83 % 0.0 in
00:37 8.2 °F 5.7 °F 1025.6 in NNE 3.2 mph 6.4 mph 84 % 0.0 in
00:42 8.1 °F 5.6 °F 1025.6 in NNE 4.8 mph 6.4 mph 84 % 0.0 in
00:52 8.1 °F 5.7 °F 1025.6 in Calm   9.7 mph 85 % 0.0 in
00:57 8.0 °F 5.6 °F 1025.6 in NNE 1.6 mph 9.7 mph 85 % 0.0 in
01:02 7.8 °F 5.4 °F 1025.6 in NNW 3.2 mph 9.7 mph 85 % 0.0 in
01:12 7.7 °F 5.5 °F 1026.0 in NNW 1.6 mph 6.4 mph 86 % 0.0 in
01:17 7.8 °F 5.6 °F 1026.0 in North 1.6 mph 4.8 mph 86 % 0.0 in
01:22 7.8 °F 5.6 °F 1026.0 in NE 1.6 mph 4.8 mph 86 % 0.0 in
01:32 7.9 °F 5.7 °F 1025.6 in North 3.2 mph 6.4 mph 86 % 0.0 in
01:37 7.8 °F 5.4 °F 1025.6 in NE 3.2 mph 9.7 mph 85 % 0.0 in
01:42 7.9 °F 5.5 °F 1025.6 in NNE 8.0 mph 9.7 mph 85 % 0.0 in
01:47 8.1 °F 5.7 °F 1025.6 in NNE 3.2 mph 14.5 mph 85 % 0.0 in
01:52 8.2 °F 5.7 °F 1025.6 in NE 12.9 mph 14.5 mph 84 % 0.0 in
01:57 8.4 °F 5.7 °F 1025.6 in NNE 11.3 mph 17.7 mph 83 % 0.0 in
02:02 8.5 °F 5.6 °F 1026.0 in NNE 16.1 mph 17.7 mph 82 % 0.0 in
02:07 8.4 °F 5.5 °F 1026.0 in NNE 6.4 mph 17.7 mph 82 % 0.0 in
02:12 8.3 °F 5.4 °F 1025.6 in NNE 1.6 mph 17.7 mph 82 % 0.0 in
02:17 8.3 °F 5.4 °F 1025.6 in NE 1.6 mph 16.1 mph 82 % 0.0 in
02:22 8.3 °F 5.4 °F 1025.6 in NNE 9.7 mph 16.1 mph 82 % 0.0 in
02:27 8.2 °F 5.3 °F 1025.6 in NW 4.8 mph 16.1 mph 82 % 0.0 in
02:32 8.1 °F 5.2 °F 1025.6 in NNE 8.0 mph 16.1 mph 82 % 0.0 in
02:37 8.1 °F 5.2 °F 1025.6 in NNE 9.7 mph 12.9 mph 82 % 0.0 in
02:42 7.9 °F 5.0 °F 1025.3 in Calm   12.9 mph 82 % 0.0 in
02:52 7.8 °F 5.1 °F 1025.3 in NE 6.4 mph 12.9 mph 83 % 0.0 in
02:57 7.8 °F 5.1 °F 1025.3 in NE 11.3 mph 12.9 mph 83 % 0.0 in
03:02 7.9 °F 5.2 °F 1025.6 in NE 8.0 mph 12.9 mph 83 % 0.0 in
03:12 7.9 °F 5.2 °F 1025.6 in NNE 6.4 mph 17.7 mph 83 % 0.0 in
03:17 7.8 °F 4.9 °F 1025.6 in NNE 12.9 mph 16.1 mph 82 % 0.0 in
03:22 7.7 °F 5.0 °F 1025.6 in North 3.2 mph 16.1 mph 83 % 0.0 in
03:27 7.6 °F 4.9 °F 1025.6 in NNE 6.4 mph 14.5 mph 83 % 0.0 in
03:32 7.4 °F 4.9 °F 1025.6 in NNE 4.8 mph 14.5 mph 84 % 0.0 in
03:37 7.2 °F 4.7 °F 1025.3 in NW 3.2 mph 11.3 mph 84 % 0.0 in
03:42 7.1 °F 4.7 °F 1025.3 in NNE 1.6 mph 11.3 mph 85 % 0.0 in
03:47 6.9 °F 4.6 °F 1025.6 in NNW 1.6 mph 9.7 mph 85 % 0.0 in
03:52 6.8 °F 4.5 °F 1025.6 in NE 4.8 mph 9.7 mph 85 % 0.0 in
03:57 6.8 °F 4.5 °F 1025.6 in North 4.8 mph 14.5 mph 85 % 0.0 in
04:02 6.7 °F 4.4 °F 1025.6 in North 4.8 mph 14.5 mph 85 % 0.0 in
04:12 6.5 °F 4.5 °F 1025.6 in NE 1.6 mph 14.5 mph 87 % 0.0 in
04:17 6.4 °F 4.4 °F 1025.3 in NNE 8.0 mph 11.3 mph 87 % 0.0 in
04:22 6.4 °F 4.4 °F 1025.3 in NW 1.6 mph 11.3 mph 87 % 0.0 in
04:32 6.3 °F 4.3 °F 1025.3 in North 8.0 mph 11.3 mph 87 % 0.0 in
04:42 6.3 °F 4.3 °F 1025.3 in NNW 9.7 mph 11.3 mph 87 % 0.0 in
04:47 6.2 °F 4.4 °F 1025.3 in Calm   16.1 mph 88 % 0.0 in
04:52 6.1 °F 4.3 °F 1025.3 in East 6.4 mph 16.1 mph 88 % 0.0 in
05:02 5.9 °F 4.1 °F 1025.3 in ENE 1.6 mph 14.5 mph 88 % 0.0 in
05:12 5.8 °F 4.0 °F 1025.3 in NNE 4.8 mph 17.7 mph 88 % 0.0 in
05:17 5.7 °F 3.9 °F 1025.3 in NE 3.2 mph 14.5 mph 88 % 0.0 in
05:22 5.6 °F 3.8 °F 1025.3 in ENE 1.6 mph 14.5 mph 88 % 0.0 in
05:32 5.3 °F 3.5 °F 1025.3 in NNE 3.2 mph 14.5 mph 88 % 0.0 in
05:42 5.3 °F 3.3 °F 1025.3 in NNE 6.4 mph 12.9 mph 87 % 0.0 in
05:47 5.3 °F 3.3 °F 1025.3 in NE 14.5 mph 14.5 mph 87 % 0.0 in
05:52 5.4 °F 3.2 °F 1025.3 in NNE 4.8 mph 12.9 mph 86 % 0.0 in
05:57 5.6 °F 3.3 °F 1025.3 in North 9.7 mph 20.9 mph 85 % 0.0 in
06:02 5.6 °F 3.3 °F 1025.3 in NNE 8.0 mph 20.9 mph 85 % 0.0 in
06:12 5.7 °F 3.0 °F 1025.6 in ENE 6.4 mph 24.1 mph 83 % 0.0 in
06:17 5.7 °F 3.0 °F 1025.6 in NE 16.1 mph 24.1 mph 83 % 0.0 in
06:22 5.7 °F 3.0 °F 1025.6 in NNE 17.7 mph 24.1 mph 83 % 0.0 in
06:32 5.5 °F 2.8 °F 1025.6 in NNE 9.7 mph 20.9 mph 83 % 0.0 in
06:37 5.4 °F 2.7 °F 1025.6 in NNE 12.9 mph 20.9 mph 83 % 0.0 in
06:42 5.4 °F 2.6 °F 1025.6 in NE 8.0 mph 20.9 mph 82 % 0.0 in
06:47 5.4 °F 2.6 °F 1025.6 in NNE 14.5 mph 24.1 mph 82 % 0.0 in
06:52 5.4 °F 2.4 °F 1025.6 in NE 19.3 mph 24.1 mph 81 % 0.0 in
06:57 5.4 °F 2.2 °F 1025.6 in NE 16.1 mph 22.5 mph 80 % 0.0 in
07:02 5.3 °F 2.1 °F 1025.6 in NNW 11.3 mph 22.5 mph 80 % 0.0 in
07:07 5.4 °F 2.1 °F 1025.6 in NNE 16.1 mph 22.5 mph 79 % 0.0 in
07:12 5.4 °F 2.1 °F 1025.6 in NE 11.3 mph 22.5 mph 79 % 0.0 in
07:17 5.4 °F 1.9 °F 1026.0 in ENE 6.4 mph 22.5 mph 78 % 0.0 in
07:22 5.5 °F 2.0 °F 1026.0 in NNE 11.3 mph 24.1 mph 78 % 0.0 in
07:32 5.7 °F 2.0 °F 1026.0 in NE 9.7 mph 19.3 mph 77 % 0.0 in
07:37 5.7 °F 1.8 °F 1026.0 in NNE 6.4 mph 19.3 mph 76 % 0.0 in
07:42 5.8 °F 1.9 °F 1026.0 in NNE 12.9 mph 16.1 mph 76 % 0.0 in
07:47 5.8 °F 1.7 °F 1026.0 in NE 4.8 mph 16.1 mph 75 % 0.0 in
07:52 5.9 °F 1.8 °F 1026.0 in NNE 4.8 mph 17.7 mph 75 % 0.0 in
07:57 6.0 °F 1.9 °F 1026.0 in NNE 11.3 mph 17.7 mph 75 % 0.0 in
08:02 6.1 °F 2.0 °F 1026.0 in NE 8.0 mph 17.7 mph 75 % 0.0 in
08:12 6.2 °F 1.9 °F 1026.0 in NNE 9.7 mph 19.3 mph 74 % 0.0 in
08:17 6.3 °F 2.0 °F 1026.0 in NNE 11.3 mph 19.3 mph 74 % 0.0 in
08:22 6.5 °F 2.4 °F 1026.0 in NE 14.5 mph 20.9 mph 75 % 0.0 in
08:32 6.7 °F 2.4 °F 1026.0 in NE 9.7 mph 17.7 mph 74 % 0.0 in
08:42 7.1 °F 2.4 °F 1026.0 in NE 11.3 mph 17.7 mph 72 % 0.0 in
08:47 7.1 °F 2.2 °F 1026.0 in NE 8.0 mph 17.7 mph 71 % 0.0 in
08:52 7.3 °F 2.2 °F 1026.0 in NE 17.7 mph 20.9 mph 70 % 0.0 in
08:57 7.4 °F 2.1 °F 1026.3 in NE 8.0 mph 20.9 mph 69 % 0.0 in
09:02 7.4 °F 1.9 °F 1026.0 in North 17.7 mph 20.9 mph 68 % 0.0 in
09:07 7.6 °F 2.1 °F 1026.0 in NNE 9.7 mph 20.9 mph 68 % 0.0 in
09:12 7.8 °F 2.1 °F 1026.0 in NNE 9.7 mph 20.9 mph 67 % 0.0 in
09:17 8.1 °F 2.3 °F 1026.3 in NE 9.7 mph 20.9 mph 67 % 0.0 in
09:22 8.3 °F 2.1 °F 1026.3 in NE 6.4 mph 20.9 mph 65 % 0.0 in
09:27 8.4 °F 2.2 °F 1026.0 in NNE 9.7 mph 20.9 mph 65 % 0.0 in
09:32 8.6 °F 2.0 °F 1026.0 in NNE 9.7 mph 17.7 mph 63 % 0.0 in
09:37 8.7 °F 2.0 °F 1026.0 in ENE 12.9 mph 17.7 mph 63 % 0.0 in
09:42 8.9 °F 1.8 °F 1026.0 in NE 19.3 mph 22.5 mph 61 % 0.0 in
09:47 9.1 °F 1.7 °F 1026.0 in NNE 11.3 mph 22.5 mph 60 % 0.0 in
09:52 9.3 °F 2.4 °F 1026.0 in NNE 17.7 mph 29.0 mph 62 % 0.0 in
09:57 9.3 °F 1.5 °F 1026.0 in North 19.3 mph 29.0 mph 58 % 0.0 in
10:02 9.3 °F 1.7 °F 1026.0 in NNE 14.5 mph 32.2 mph 59 % 0.0 in
10:12 9.4 °F 1.6 °F 1026.0 in ENE 22.5 mph 32.2 mph 58 % 0.0 in
10:17 9.5 °F 1.9 °F 1026.0 in ENE 11.3 mph 32.2 mph 59 % 0.0 in
10:22 9.5 °F 1.6 °F 1026.0 in NE 12.9 mph 29.0 mph 58 % 0.0 in
10:32 9.7 °F 1.8 °F 1026.0 in NNE 22.5 mph 29.0 mph 58 % 0.0 in
10:37 9.7 °F 2.1 °F 1026.0 in NE 12.9 mph 29.0 mph 59 % 0.0 in
10:42 9.8 °F 2.2 °F 1026.0 in NE 19.3 mph 32.2 mph 59 % 0.0 in
10:47 9.9 °F 2.0 °F 1026.0 in ENE 17.7 mph 32.2 mph 58 % 0.0 in
10:57 10.1 °F 1.5 °F 1026.0 in North 20.9 mph 29.0 mph 55 % 0.0 in
11:02 10.2 °F 1.8 °F 1026.0 in NNE 12.9 mph 33.8 mph 56 % 0.0 in
11:07 10.4 °F 1.7 °F 1026.0 in ENE 12.9 mph 33.8 mph 55 % 0.0 in
11:12 10.4 °F 1.5 °F 1026.0 in NE 19.3 mph 33.8 mph 54 % 0.0 in
11:17 10.6 °F 1.9 °F 1026.0 in ENE 14.5 mph 33.8 mph 55 % 0.0 in
11:22 10.6 °F 1.4 °F 1026.0 in ENE 8.0 mph 30.6 mph 53 % 0.0 in
11:32 10.7 °F 1.5 °F 1026.0 in ENE 20.9 mph 32.2 mph 53 % 0.0 in
11:42 11.1 °F 2.4 °F 1026.0 in NE 14.5 mph 32.2 mph 55 % 0.0 in
11:47 11.3 °F 1.8 °F 1026.0 in NNE 11.3 mph 32.2 mph 52 % 0.0 in
11:52 11.3 °F 2.1 °F 1026.0 in NNE 35.4 mph 35.4 mph 53 % 0.0 in
11:57 11.2 °F 2.2 °F 1026.0 in NNE 14.5 mph 30.6 mph 54 % 0.0 in
12:02 11.4 °F 1.6 °F 1026.0 in North 14.5 mph 35.4 mph 51 % 0.0 in
12:07 11.3 °F 1.8 °F 1026.0 in ENE 22.5 mph 35.4 mph 52 % 0.0 in
12:12 11.2 °F 1.4 °F 1026.0 in NE 14.5 mph 32.2 mph 51 % 0.0 in
12:17 11.3 °F 1.8 °F 1026.0 in NE 24.1 mph 32.2 mph 52 % 0.0 in
12:22 11.2 °F 2.0 °F 1026.0 in NE 16.1 mph 43.4 mph 53 % 0.0 in
12:32 11.7 °F 1.0 °F 1025.6 in North 17.7 mph 43.4 mph 48 % 0.0 in
12:37 11.8 °F 1.7 °F 1025.6 in East 9.7 mph 40.2 mph 50 % 0.0 in
12:42 12.1 °F 2.0 °F 1025.6 in North 16.1 mph 40.2 mph 50 % 0.0 in
12:47 12.0 °F 1.6 °F 1025.3 in NNW 17.7 mph 40.2 mph 49 % 0.0 in
12:52 11.9 °F 2.1 °F 1025.6 in NNE 19.3 mph 40.2 mph 51 % 0.0 in
12:57 11.8 °F 1.4 °F 1025.6 in NE 20.9 mph 40.2 mph 49 % 0.0 in
13:02 11.9 °F 1.5 °F 1025.3 in NNE 11.3 mph 35.4 mph 49 % 0.0 in
13:12 12.4 °F 1.7 °F 1025.3 in NE 12.9 mph 35.4 mph 48 % 0.0 in
13:17 12.4 °F 2.3 °F 1025.3 in East 14.5 mph 27.4 mph 50 % 0.0 in
13:22 12.4 °F 1.7 °F 1024.9 in ENE 17.7 mph 27.4 mph 48 % 0.0 in
13:32 12.6 °F 2.2 °F 1024.9 in NNE 14.5 mph 32.2 mph 49 % 0.0 in
13:37 12.7 °F 2.5 °F 1024.9 in NE 16.1 mph 30.6 mph 50 % 0.0 in
13:42 12.8 °F 2.3 °F 1024.9 in East 17.7 mph 30.6 mph 49 % 0.0 in
13:47 12.9 °F 2.7 °F 1024.9 in East 19.3 mph 29.0 mph 50 % 0.0 in
13:52 13.3 °F 2.2 °F 1024.9 in NNE 20.9 mph 29.0 mph 47 % 0.0 in
14:02 13.3 °F 2.8 °F 1024.6 in ENE 4.8 mph 27.4 mph 49 % 0.0 in
14:12 13.2 °F 1.5 °F 1024.6 in NW 20.9 mph 30.6 mph 45 % 0.0 in
14:17 13.3 °F 1.6 °F 1024.6 in NNE 27.4 mph 32.2 mph 45 % 0.0 in
14:22 13.3 °F 1.3 °F 1024.6 in NW 9.7 mph 32.2 mph 44 % 0.0 in
14:32 13.2 °F 0.2 °F 1024.6 in NNE 17.7 mph 30.6 mph 41 % 0.0 in
14:37 13.0 °F 0.4 °F 1024.3 in NNW 20.9 mph 32.2 mph 42 % 0.0 in
14:42 13.3 °F 1.0 °F 1024.3 in ENE 12.9 mph 32.2 mph 43 % 0.0 in
14:47 13.3 °F 0.3 °F 1024.3 in ENE 17.7 mph 29.0 mph 41 % 0.0 in
14:52 13.5 °F 0.5 °F 1024.3 in NE 16.1 mph 29.0 mph 41 % 0.0 in
14:57 13.4 °F 0.4 °F 1024.3 in WNW 6.4 mph 30.6 mph 41 % 0.0 in
15:02 13.4 °F 0.7 °F 1024.3 in NW 16.1 mph 30.6 mph 42 % 0.0 in
15:07 13.4 °F 0.7 °F 1024.3 in NE 8.0 mph 30.6 mph 42 % 0.0 in
15:12 13.7 °F 1.7 °F 1023.9 in NNE 19.3 mph 30.6 mph 44 % 0.0 in
15:17 13.7 °F 1.0 °F 1023.9 in NE 12.9 mph 27.4 mph 42 % 0.0 in
15:22 13.7 °F 0.7 °F 1023.9 in ENE 12.9 mph 27.4 mph 41 % 0.0 in
15:27 13.8 °F 0.1 °F 1023.9 in East 12.9 mph 29.0 mph 39 % 0.0 in
15:32 13.8 °F 0.8 °F 1023.9 in North 17.7 mph 29.0 mph 41 % 0.0 in
15:37 13.7 °F 0.7 °F 1023.6 in NNE 14.5 mph 32.2 mph 41 % 0.0 in
15:42 13.8 °F 0.8 °F 1023.6 in NE 8.0 mph 32.2 mph 41 % 0.0 in
15:47 13.8 °F 0.8 °F 1023.6 in ENE 8.0 mph 29.0 mph 41 % 0.0 in
15:52 13.6 °F 0.2 °F 1023.6 in NNE 11.3 mph 29.0 mph 40 % 0.0 in
16:02 13.8 °F 0.8 °F 1023.2 in NE 11.3 mph 29.0 mph 41 % 0.0 in
16:12 13.7 °F 0.0 °F 1023.2 in ENE 16.1 mph 30.6 mph 39 % 0.0 in
16:17 13.9 °F 1.5 °F 1023.2 in North 11.3 mph 29.0 mph 43 % 0.0 in
16:22 14.1 °F 1.0 °F 1023.2 in ENE 12.9 mph 29.0 mph 41 % 0.0 in
16:32 14.2 °F 1.8 °F 1023.2 in North 12.9 mph 29.0 mph 43 % 0.0 in
16:37 14.3 °F 0.9 °F 1023.2 in ENE 11.3 mph 24.1 mph 40 % 0.0 in
16:42 14.2 °F 1.1 °F 1023.2 in ENE 12.9 mph 24.1 mph 41 % 0.0 in
16:47 14.0 °F 1.6 °F 1023.2 in NE 11.3 mph 27.4 mph 43 % 0.0 in
16:52 14.2 °F 1.1 °F 1023.2 in NE 6.4 mph 27.4 mph 41 % 0.0 in
16:57 14.2 °F 1.5 °F 1022.9 in NNE 8.0 mph 27.4 mph 42 % 0.0 in
17:02 14.2 °F 1.5 °F 1022.9 in NE 20.9 mph 27.4 mph 42 % 0.0 in
17:12 14.3 °F 1.6 °F 1022.9 in NE 12.9 mph 25.7 mph 42 % 0.0 in
17:17 14.3 °F 1.2 °F 1022.9 in NE 9.7 mph 24.1 mph 41 % 0.0 in
17:22 14.2 °F 0.8 °F 1022.9 in NNE 12.9 mph 24.1 mph 40 % 0.0 in
17:32 14.2 °F 1.1 °F 1022.9 in ENE 8.0 mph 30.6 mph 41 % 0.0 in
17:42 14.2 °F 1.5 °F 1022.9 in NE 6.4 mph 25.7 mph 42 % 0.0 in
17:47 14.3 °F 1.2 °F 1022.9 in NNE 19.3 mph 25.7 mph 41 % 0.0 in
17:52 14.2 °F 1.8 °F 1022.6 in ENE 8.0 mph 25.7 mph 43 % 0.0 in
17:57 14.2 °F 1.5 °F 1022.6 in NNE 11.3 mph 27.4 mph 42 % 0.0 in
18:02 14.1 °F 1.0 °F 1022.6 in NE 9.7 mph 27.4 mph 41 % 0.0 in
18:07 14.2 °F 1.8 °F 1022.6 in NNE 14.5 mph 24.1 mph 43 % 0.0 in
18:12 14.1 °F 1.0 °F 1022.6 in ENE 9.7 mph 24.1 mph 41 % 0.0 in
18:17 14.1 °F 1.0 °F 1022.6 in ENE 14.5 mph 29.0 mph 41 % 0.0 in
18:22 14.1 °F 1.7 °F 1022.6 in NNE 14.5 mph 29.0 mph 43 % 0.0 in
18:27 14.1 °F 1.0 °F 1022.6 in ENE 12.9 mph 29.0 mph 41 % 0.0 in
18:32 14.0 °F 1.3 °F 1022.6 in ENE 9.7 mph 22.5 mph 42 % 0.0 in
18:42 13.8 °F 1.4 °F 1022.6 in NNE 11.3 mph 24.1 mph 43 % 0.0 in
18:52 13.6 °F 1.3 °F 1022.6 in ENE 14.5 mph 24.1 mph 43 % 0.0 in
18:57 13.7 °F 1.7 °F 1022.6 in NE 14.5 mph 27.4 mph 44 % 0.0 in
19:02 13.7 °F 1.3 °F 1022.6 in ENE 11.3 mph 27.4 mph 43 % 0.0 in
19:12 13.6 °F 1.3 °F 1022.6 in NE 14.5 mph 27.4 mph 43 % 0.0 in
19:17 13.5 °F 1.5 °F 1022.2 in NE 8.0 mph 19.3 mph 44 % 0.0 in
19:22 13.3 °F 1.3 °F 1022.2 in NNE 11.3 mph 19.3 mph 44 % 0.0 in
19:32 13.2 °F 1.5 °F 1022.2 in NNE 9.7 mph 25.7 mph 45 % 0.0 in
19:42 13.1 °F 1.4 °F 1022.2 in NNE 14.5 mph 27.4 mph 45 % 0.0 in
19:47 13.0 °F 1.3 °F 1022.2 in NE 12.9 mph 27.4 mph 45 % 0.0 in
19:52 12.9 °F 1.6 °F 1022.2 in NNE 9.7 mph 27.4 mph 46 % 0.0 in
19:57 12.8 °F 1.5 °F 1022.2 in ENE 9.7 mph 24.1 mph 46 % 0.0 in
20:02 12.7 °F 1.4 °F 1022.2 in NE 14.5 mph 24.1 mph 46 % 0.0 in
20:07 12.6 °F 1.3 °F 1022.2 in NNW 9.7 mph 20.9 mph 46 % 0.0 in
20:12 12.5 °F 1.5 °F 1022.2 in NNE 12.9 mph 20.9 mph 47 % 0.0 in
20:17 12.3 °F 1.3 °F 1022.2 in NNE 14.5 mph 22.5 mph 47 % 0.0 in
20:22 12.2 °F 1.5 °F 1022.2 in NNE 9.7 mph 22.5 mph 48 % 0.0 in
20:32 11.8 °F 1.4 °F 1022.2 in NE 14.5 mph 17.7 mph 49 % 0.0 in
20:37 11.8 °F 1.4 °F 1022.2 in NNE 12.9 mph 19.3 mph 49 % 0.0 in
20:47 11.3 °F 1.2 °F 1022.2 in NE 9.7 mph 19.3 mph 50 % 0.0 in
20:52 11.2 °F 1.2 °F 1022.2 in NE 4.8 mph 19.3 mph 50 % 0.0 in
20:57 11.1 °F 1.3 °F 1022.2 in NE 8.0 mph 17.7 mph 51 % 0.0 in
21:02 11.0 °F 1.2 °F 1022.2 in North 6.4 mph 17.7 mph 51 % 0.0 in
21:12 10.6 °F 1.4 °F 1022.2 in North 4.8 mph 19.3 mph 53 % 0.0 in
21:17 10.3 °F 1.4 °F 1022.2 in NE 3.2 mph 16.1 mph 54 % 0.0 in
21:22 10.1 °F 1.5 °F 1022.2 in Calm   16.1 mph 55 % 0.0 in
21:27 10.0 °F 1.6 °F 1022.2 in NNW 1.6 mph 14.5 mph 56 % 0.0 in
21:32 9.8 °F 1.4 °F 1022.2 in NNW 1.6 mph 14.5 mph 56 % 0.0 in
21:37 9.6 °F 1.5 °F 1022.6 in Calm   14.5 mph 57 % 0.0 in
21:47 9.3 °F 1.5 °F 1022.6 in NNE 6.4 mph 8.0 mph 58 % 0.0 in
21:52 9.1 °F 1.5 °F 1022.6 in North 4.8 mph 8.0 mph 59 % 0.0 in
21:57 9.0 °F 1.4 °F 1022.6 in ENE 1.6 mph 9.7 mph 59 % 0.0 in
22:02 9.1 °F 1.5 °F 1022.6 in NE 9.7 mph 9.7 mph 59 % 0.0 in
22:12 8.9 °F 1.3 °F 1022.6 in NNE 11.3 mph 12.9 mph 59 % 0.0 in
22:22 8.8 °F 1.5 °F 1022.6 in NNE 3.2 mph 11.3 mph 60 % 0.0 in
22:32 8.6 °F 1.5 °F 1022.6 in North 1.6 mph 11.3 mph 61 % 0.0 in
22:37 8.6 °F 1.5 °F 1022.6 in NE 4.8 mph 8.0 mph 61 % 0.0 in
22:42 8.6 °F 1.5 °F 1022.6 in NW 1.6 mph 8.0 mph 61 % 0.0 in
22:47 8.6 °F 1.5 °F 1022.6 in North 9.7 mph 11.3 mph 61 % 0.0 in
22:52 8.5 °F 1.4 °F 1022.6 in NNE 6.4 mph 11.3 mph 61 % 0.0 in
22:57 8.4 °F 1.3 °F 1022.6 in North 6.4 mph 11.3 mph 61 % 0.0 in
23:02 8.3 °F 1.4 °F 1022.6 in North 1.6 mph 11.3 mph 62 % 0.0 in
23:12 8.3 °F 1.4 °F 1022.2 in NNE 4.8 mph 14.5 mph 62 % 0.0 in
23:17 8.2 °F 1.4 °F 1022.2 in North 1.6 mph 14.5 mph 62 % 0.0 in
23:22 8.1 °F 1.3 °F 1022.2 in NNE 1.6 mph 14.5 mph 62 % 0.0 in
23:32 7.8 °F 1.2 °F 1022.2 in NNE 1.6 mph 11.3 mph 63 % 0.0 in
23:42 7.5 °F 1.1 °F 1022.2 in NW 3.2 mph 9.7 mph 64 % 0.0 in
23:47 7.4 °F 1.3 °F 1022.2 in NW 1.6 mph 8.0 mph 65 % 0.0 in
23:52 7.3 °F 1.2 °F 1022.2 in NW 3.2 mph 8.0 mph 65 % 0.0 in
23:57 7.3 °F 1.2 °F 1022.2 in NW 4.8 mph 6.4 mph 65 % 0.0 in
Meteo18
Compliments of Weather Underground - 4 mb

Script developed by  Jim McMurry - jmcmurry@mwt.net Adapted for the template by  Wim van der Kuil - Leuven-Template.eu

You find our weather info also at:

European Weather Network

Weather Underground

Equipment we use:

Weather-station
Davis Vue

Weather-program
Meteobridge

Weather-server
Raspberry PI 2 B+

Provider
1 and 1

Davis Vue

Meteobridge

Raspberry PI 2 B+

1 and 1